Regional Weather Roundup
Issued by NWS

Home | Current Version | Previous Version | Text Only | Print | Product List | Glossary On
Versions: 1 2 3 4 5 6 7 8 9 10 11 12 13 14 15 16 17 18 19 20 21 22 23 24 25 26 27 28 29 30 31 32 33 34 35 36 37 38 39 40 41 42 43 44 45 46 47 48 49 50
000
ASUS43 KLSX 270207
RWRMO

WEATHER SUMMARY FOR MISSOURI
NATIONAL WEATHER SERVICE SPRINGFIELD MO
800 PM CST WED NOV 26 2014

NOTE: "FAIR" INDICATES FEW OR NO CLOUDS BELOW 12,000 FEET WITH NO
       SIGNIFICANT WEATHER AND/OR OBSTRUCTIONS TO VISIBILITY.
       CURRENT SKY AND/OR WEATHER CONDITIONS ARE NOT AVAILABLE FOR
       CHILLICOTHE AND FARMINGTON.

MOZ001>031-035>038-043-044-053-054-270300-
...NORTHERN AND WESTERN MISSOURI...

CITY           SKY/WX    TMP DP  RH WIND       PRES   REMARKS
KANSAS CTY INT CLOUDY    30  23  75 NW15G28   30.27R WCI  19
KANSAS C DTWN  CLOUDY    32  23  69 NW14G25   30.29R WCI  22
LEE`S SUMMIT   CLOUDY    31  23  72 NW21      30.27R WCI  18
ST JOSEPH      CLOUDY    29  22  75 N23G33    30.32R WCI  15
CHILLICOTHE      N/A     32  28  85 NW12G18   30.24R WCI  23
KIRKSVILLE     LGT SNOW  32  30  92 N13       30.17R FOG     WCI  22

$$
MOZ066>068-077>081-088>096-101>105-270300-
...SOUTHWEST MISSOURI...

CITY           SKY/WX    TMP DP  RH WIND       PRES   REMARKS
SPRINGFIELD    CLOUDY    37  26  64 NW17G28   30.20R WCI  27
JOPLIN         CLOUDY    37  25  61 NW18      30.30R WCI  27

$$
MOZ032>034-039>042-045>050-055>058-069>072-270300-
...CENTRAL MISSOURI...

CITY           SKY/WX    TMP DP  RH WIND       PRES   REMARKS
COLUMBIA       MIX PCPN  33  30  88 NW16G24   30.13R WCI  23
JEFFERSON CITY CLOUDY    35  29  78 NW17G32   30.15R WCI  25
ROLLA          CLOUDY    34  31  88 W22G29    30.09R WCI  22
SEDALIA        CLOUDY    33  27  78 NW21      30.21R WCI  21
WHITEMAN AFB   CLOUDY    32  27  80 N16G30    30.23R WCI  21
WARRENSBURG    CLOUDY    32  27  80 NW21G28   30.25R WCI  20
OSAGE BEACH    CLOUDY    36  27  69 NW9G22    30.16R WCI  29

$$
MOZ051-052-059>065-270300-
...EAST CENTRAL MISSOURI...

CITY           SKY/WX    TMP DP  RH WIND       PRES   REMARKS
ST LOUIS INTL  LGT SNOW  34  32  92 CALM      30.08R
SPIRIT OF STL  DRIZZLE   33  32  96 CALM      30.07R FOG
ST CHARLES     FOG       33  32  96 CALM      30.08R VSB 1

$$
MOZ072>076-082>087-097>100-106>115-270300-
...SOUTH CENTRAL AND SOUTHEAST MISSOURI...

CITY           SKY/WX    TMP DP  RH WIND       PRES   REMARKS
CAPE GIRARDEAU CLOUDY    36  34  92 W8        30.09R WCI  30
FARMINGTON     CLOUDY    36  34  93 W10G17    30.07R WCI  28
POPLAR BLUFF   MOCLDY    37  32  82 W5        30.10R
WEST PLAINS    CLOUDY    40  27  59 NW15G29   30.12R

$$



USA.gov is the U.S. government's official web portal to all federal, state and local government web resources and services.